Flag for Saudi Arabia Weather past 2 weeks in Riyadh, Saudi Arabia

Now
77 °F

Sunny.


Feels Like: 78 °F
Forecast: 74 / 93 °F
Wind: 3 mph from South

Location: King Khaled International Airport

Current Time: Oct 26, 2014 at 9:03:47 AM

Latest Report: Oct 26, 2014 at 8:00 AM


Visibility: 10 mi

Pressure: 30.07 "Hg

Humidity: 32%

Dew point: 45 °F

Location of RiyadhLocation

Historic Weather in Riyadh — Graph

°F

Riyadh temperature yesterday

Maximum temperature yesterday: 95 °F (at 2:00 PM)
Minimum temperature yesterday: 70 °F (at 6:00 AM)
Average temperature yesterday: 82 °F

Past Weeks' High & Low Weather Summary

 TemperatureHumidityPressure
High99 °F (Oct 17, 2:00 PM)83% (Oct 18, 7:00 AM)30.18 "Hg (Oct 18, 7:00 AM)
Low66 °F (Oct 23, 6:00 AM)9% (Oct 17, 3:00 PM)29.89 "Hg (Oct 20, 2:00 PM)
Average83 °F26%30.02 "Hg
* Reported Oct 11 8:00 AM — Oct 26 8:00 AM, Riyadh, Weather by CustomWeather, © 2014

Note: Actual official high and low records may vary slightly from our data, if they occured in-between our weather recording intervals... More about our weather records

Advertising

Riyadh weather history for previous 24 hours

 ConditionsComfort  
Time TempWeatherWind HumidityBarometerVisibility
8:00 AM
Oct 26
77 °FSunny.3 mph32%30.07 "Hg10 mi
7:00 AM70 °FSunny.2 mph43%30.07 "Hg6 mi
6:00 AM70 °FSunny.2 mph40%30.04 "Hg4 mi
5:00 AM70 °FClear.No wind40%30.01 "Hg10 mi
4:00 AM72 °FClear.2 mph36%30.01 "Hg10 mi
3:00 AM73 °FClear.3 mph33%30.01 "Hg10 mi
2:00 AM73 °FClear.3 mph27%30.01 "Hg10 mi
1:00 AM73 °FClear.No wind27%30.01 "Hg10 mi
12:00 AM77 °FClear.6 mph22%30.01 "Hg10 mi
11:00 PM
Oct 25
75 °FClear.6 mph25%30.04 "Hg10 mi
10:00 PM79 °FClear.6 mph24%30.01 "Hg10 mi
9:00 PM81 °FClear.7 mph21%30.01 "Hg10 mi
8:00 PM82 °FClear.6 mph17%30.01 "Hg10 mi
7:00 PM86 °FClear.6 mph18%29.98 "Hg10 mi
6:00 PM88 °FClear.8 mph16%29.98 "Hg10 mi
5:00 PM88 °FSunny.8 mph18%29.95 "Hg10 mi
4:00 PM93 °FSunny.7 mph15%29.95 "Hg5 mi
3:00 PM95 °FSunny.6 mph13%29.92 "Hg5 mi
2:00 PM95 °FSunny.6 mph13%29.95 "Hg5 mi
1:00 PM93 °FSunny.6 mph15%29.95 "Hg5 mi
12:00 PM91 °FSunny.5 mph16%29.98 "Hg5 mi
11:00 AM91 °FSunny.3 mph17%30.01 "Hg5 mi
10:00 AM86 °FSunny.5 mph22%30.04 "Hg5 mi
9:00 AM82 °FSunny.3 mph26%30.04 "Hg5 mi
Weather by CustomWeather, © 2014

See weather overviewHow to use our weather pages